This is the latest recevied weather packets stored in our database for station/object KD9JJA. If no packets are shown the sender has not sent any weather packets the latest 1 day(s).
| Time | Temp. | Humidity | Pressure | Rain* | Wind** | Luminosity | Snow |
|---|---|---|---|---|---|---|---|
| 1778026431 | 9.44° C | 99% | 1009.8 hPa | 0 mm | 0 m/s | 0 W/m² | - |
| 1778026134 | 9.44° C | 99% | 1010.2 hPa | 0 mm | 0.45 m/s, 212° | 0 W/m² | - |
| 1778025826 | 9.44° C | 99% | 1009.5 hPa | 0 mm | 0 m/s | 0 W/m² | - |
| 1778025522 | 9.44° C | 99% | 1009.6 hPa | 0 mm | 0 m/s | 0 W/m² | - |
| 1778025220 | 9.44° C | 99% | 1009.5 hPa | 1.78 mm | 0 m/s | 2 W/m² | - |
| 1778024917 | 9.44° C | 99% | 1009.6 hPa | 1.78 mm | 0 m/s | 2 W/m² | - |
| 1778024614 | 9.44° C | 99% | 1009.6 hPa | 1.27 mm | 0.45 m/s, 170° | 4 W/m² | - |
| 1778024316 | 9.44° C | 99% | 1009.8 hPa | 1.27 mm | 0 m/s | 4 W/m² | - |
| 1778024009 | 9.44° C | 99% | 1009.1 hPa | 0 mm | 0.45 m/s, 215° | 10 W/m² | - |
| 1778023706 | 9.44° C | 99% | 1009.8 hPa | 0 mm | 0 m/s | 3 W/m² | - |
| 1778023404 | 10° C | 99% | 1009.7 hPa | 0 mm | 0 m/s | 2 W/m² | - |
| 1778023100 | 10° C | 99% | 1010.3 hPa | 0 mm | 0 m/s | 1 W/m² | - |
| 1778022798 | 9.44° C | 99% | 1010.2 hPa | 0 mm | 0.45 m/s, 215° | 2 W/m² | - |
| 1778022496 | 10° C | 99% | 1009.7 hPa | 0 mm | 0 m/s | 3 W/m² | - |
| 1778022192 | 10° C | 99% | 1009.9 hPa | 0 mm | 0 m/s | 6 W/m² | - |
| 1778021884 | 10° C | 99% | 1010.1 hPa | 0 mm | 0 m/s | 4 W/m² | - |
| 1778021581 | 10.56° C | 99% | 1010.4 hPa | 0 mm | 0 m/s | 3 W/m² | - |
| 1778021275 | 11.11° C | 99% | 1010.6 hPa | 0 mm | 0.45 m/s, 147° | 1 W/m² | - |
| 1778020974 | 10.56° C | 99% | 1009.9 hPa | 0 mm | 0 m/s | 1 W/m² | - |
| 1778020671 | 11.11° C | 99% | 1009.3 hPa | 0 mm | 0.89 m/s, 193° | 11 W/m² | - |
| 1778020367 | 11.11° C | 99% | 1009.5 hPa | 0 mm | 0.45 m/s, 146° | 19 W/m² | - |
| 1778020063 | 11.67° C | 99% | 1009.8 hPa | 0 mm | 0 m/s | 7 W/m² | - |
| 1778019760 | 11.67° C | 99% | 1009.9 hPa | 0 mm | 0.45 m/s, 269° | 7 W/m² | - |
| 1778019457 | 11.67° C | 99% | 1010 hPa | 0 mm | 0.45 m/s, 232° | 3 W/m² | - |
| 1778019154 | 11.67° C | 99% | 1009.6 hPa | 0 mm | 0.45 m/s, 238° | 8 W/m² | - |
* Rain latest hour (hover to see other rain measurements)
** Current wind speed in m/s (hover to see current wind gust speed)